�������l�o���
Date,Time,MP-1(��Sv/h),MP-2(��Sv/h),MP-3(��Sv/h),MP-4(��Sv/h),MP-5(��Sv/h),MP-6(��Sv/h),MP-7(��Sv/h),MP-8(��Sv/h),����,����(m/s),���J
2021/09/29,00:00,0.594,0.883,0.564,1.085,0.773,0.361,0.629,0.588,�k��,2.9,��
2021/09/29,00:10,0.592,0.884,0.564,1.085,0.772,0.362,0.627,0.587,�k��,2.9,��
2021/09/29,00:20,0.592,0.886,0.565,1.082,0.771,0.361,0.627,0.587,�k��,2.9,��
2021/09/29,00:30,0.596,0.885,0.563,1.085,0.772,0.361,0.629,0.587,�k��,2.9,��
2021/09/29,00:40,0.592,0.886,0.564,1.085,0.772,0.362,0.626,0.588,�k��,2.9,��
2021/09/29,00:50,0.593,0.886,0.566,1.082,0.773,0.362,0.627,0.588,�k��,2.9,��
2021/09/29,01:00,0.593,0.884,0.566,1.083,0.772,0.362,0.630,0.587,�k��,2.9,��
2021/09/29,01:10,0.593,0.884,0.565,1.085,0.772,0.362,0.627,0.589,�k��,2.9,��
2021/09/29,01:20,0.593,0.884,0.566,1.087,0.772,0.361,0.628,0.587,�k��,2.9,��
2021/09/29,01:30,0.592,0.886,0.566,1.084,0.772,0.360,0.627,0.588,�k��,2.9,��
2021/09/29,01:40,0.594,0.885,0.565,1.083,0.772,0.362,0.627,0.586,�k��,2.9,��
2021/09/29,01:50,0.591,0.883,0.566,1.084,0.772,0.361,0.627,0.588,�k��,2.9,��
2021/09/29,02:00,0.593,0.883,0.566,1.085,0.774,0.359,0.628,0.589,�k��,2.9,��
2021/09/29,02:10,0.592,0.882,0.564,1.084,0.772,0.361,0.627,0.588,�k��,2.9,��
2021/09/29,02:20,0.594,0.884,0.564,1.084,0.773,0.362,0.627,0.588,�k��,2.9,��
2021/09/29,02:30,0.594,0.883,0.565,1.085,0.772,0.361,0.626,0.588,�k��,2.9,��
2021/09/29,02:40,0.594,0.886,0.564,1.084,0.773,0.362,0.627,0.588,�k��,2.9,��
2021/09/29,02:50,0.593,0.884,0.564,1.082,0.771,0.362,0.626,0.590,�k��,2.9,��
2021/09/29,03:00,0.593,0.885,0.566,1.082,0.772,0.363,0.628,0.589,�k��,2.9,��
2021/09/29,03:10,0.593,0.885,0.564,1.085,0.773,0.360,0.628,0.587,�k��,2.9,��
2021/09/29,03:20,0.593,0.885,0.565,1.083,0.770,0.361,0.629,0.589,�k��,2.9,��
2021/09/29,03:30,0.594,0.886,0.563,1.083,0.774,0.363,0.626,0.589,�k��,2.9,��
2021/09/29,03:40,0.591,0.882,0.565,1.085,0.773,0.362,0.627,0.588,�k��,2.9,��
2021/09/29,03:50,0.592,0.883,0.563,1.085,0.774,0.360,0.627,0.586,�k��,2.9,��
2021/09/29,04:00,0.592,0.884,0.564,1.083,0.772,0.361,0.626,0.588,�k��,2.9,��
2021/09/29,04:10,0.592,0.882,0.566,1.083,0.772,0.362,0.626,0.589,�k��,2.9,��
2021/09/29,04:20,0.593,0.884,0.564,1.083,0.772,0.362,0.627,0.588,�k��,2.9,��
2021/09/29,04:30,0.594,0.883,0.563,1.086,0.772,0.362,0.627,0.588,�k��,2.9,��
2021/09/29,04:40,0.594,0.883,0.562,1.085,0.771,0.362,0.627,0.587,�k��,2.9,��
2021/09/29,04:50,0.592,0.882,0.565,1.086,0.770,0.361,0.626,0.589,�k��,2.9,��
2021/09/29,05:00,0.594,0.881,0.565,1.085,0.773,0.362,0.626,0.588,�k��,2.9,��
2021/09/29,05:10,0.593,0.883,0.563,1.084,0.770,0.362,0.628,0.588,�k��,2.9,��
2021/09/29,05:20,0.591,0.883,0.563,1.085,0.772,0.361,0.628,0.588,�k��,2.9,��
2021/09/29,05:30,0.593,0.885,0.564,1.083,0.772,0.362,0.626,0.589,�k��,2.9,��
2021/09/29,05:40,0.593,0.884,0.563,1.083,0.770,0.361,0.626,0.587,�k��,2.9,��
2021/09/29,05:50,0.592,0.885,0.564,1.083,0.772,0.361,0.628,0.587,�k��,2.9,��
2021/09/29,06:00,0.594,0.883,0.562,1.083,0.771,0.361,0.628,0.588,�k��,2.9,��
2021/09/29,06:10,0.594,0.883,0.564,1.085,0.771,0.361,0.626,0.588,�k��,2.9,��
2021/09/29,06:20,0.592,0.882,0.564,1.083,0.772,0.361,0.626,0.588,�k��,2.9,��
2021/09/29,06:30,0.593,0.884,0.565,1.084,0.771,0.360,0.626,0.587,�k��,2.9,��
2021/09/29,06:40,0.593,0.885,0.565,1.084,0.771,0.360,0.626,0.588,�k��,2.9,��
2021/09/29,06:50,0.593,0.884,0.565,1.085,0.769,0.359,0.626,0.588,�k��,2.9,��
2021/09/29,07:00,0.593,0.884,0.565,1.084,0.771,0.360,0.627,0.588,�k��,2.9,��
2021/09/29,07:10,0.594,0.885,0.565,1.084,0.773,0.361,0.628,0.587,�k��,2.9,��
2021/09/29,07:20,0.594,0.884,0.565,1.082,0.773,0.360,0.629,0.589,�k��,2.9,��
2021/09/29,07:30,0.592,0.883,0.565,1.084,0.771,0.362,0.629,0.589,�k��,2.9,��
2021/09/29,07:40,0.594,0.884,0.565,1.084,0.770,0.360,0.628,0.588,�k��,2.9,��
2021/09/29,07:50,0.594,0.882,0.564,1.085,0.771,0.362,0.629,0.589,�k��,2.9,��
2021/09/29,08:00,0.594,0.884,0.565,1.084,0.771,0.362,0.629,0.588,�k��,2.9,��
2021/09/29,08:10,0.594,0.880,0.565,1.086,0.771,0.361,0.629,0.589,�k��,2.9,��
2021/09/29,08:20,0.593,0.882,0.564,1.083,0.771,0.363,0.627,0.588,�k��,2.9,��
2021/09/29,08:30,0.593,0.882,0.563,1.084,0.771,0.361,0.627,0.588,�k��,2.9,��
2021/09/29,08:40,0.594,0.882,0.566,1.084,0.771,0.361,0.626,0.588,�k��,2.9,��
2021/09/29,08:50,0.594,0.880,0.565,1.084,0.772,0.362,0.627,0.589,�k��,2.9,��
2021/09/29,09:00,0.595,0.882,0.562,1.084,0.769,0.361,0.626,0.587,�k��,2.9,��
2021/09/29,09:10,0.593,0.883,0.566,1.085,0.773,0.361,0.625,0.587,�k��,2.9,��
2021/09/29,09:20,0.594,0.880,0.564,1.084,0.772,0.361,0.627,0.586,�k��,2.9,��
2021/09/29,09:30,0.595,0.885,0.563,1.085,0.770,0.359,0.627,0.587,�k��,2.9,��
2021/09/29,09:40,0.594,0.884,0.563,1.086,0.774,0.359,0.626,0.586,�k��,2.9,��
2021/09/29,09:50,0.595,0.887,0.564,1.087,0.774,0.359,0.627,0.585,�k��,2.9,��
2021/09/29,10:00,0.594,0.886,0.564,1.086,0.773,0.361,0.627,0.586,�k��,2.9,��
2021/09/29,10:10,0.596,0.886,0.564,1.086,0.773,0.360,0.627,0.586,�k��,2.9,��
2021/09/29,10:20,0.597,0.885,0.566,1.086,0.773,0.360,0.626,0.586,�k��,2.9,��
2021/09/29,10:30,0.596,0.888,0.565,1.086,0.772,0.360,0.627,0.587,�k��,2.9,��
2021/09/29,10:40,0.596,0.885,0.565,1.084,0.774,0.360,0.625,0.586,�k��,2.9,��
2021/09/29,10:50,0.595,0.887,0.566,1.088,0.775,0.361,0.628,0.586,�k��,2.9,��
2021/09/29,11:00,0.597,0.889,0.565,1.086,0.774,0.361,0.627,0.586,�k��,2.9,��
2021/09/29,11:10,0.595,0.889,0.567,1.086,0.774,0.362,0.628,0.586,�k��,2.9,��
2021/09/29,11:20,0.596,0.885,0.567,1.088,0.775,0.360,0.629,0.586,�k��,2.9,��
2021/09/29,11:30,0.596,0.889,0.567,1.088,0.775,0.360,0.626,0.587,�k��,2.9,��
2021/09/29,11:40,0.592,0.890,0.566,1.087,0.774,0.363,0.630,0.585,�k��,2.9,��
2021/09/29,11:50,0.586,0.889,0.565,1.087,0.776,0.361,0.628,0.586,�k��,2.9,��
2021/09/29,12:00,0.592,0.889,0.569,1.086,0.774,0.361,0.628,0.586,-,-,��
2021/09/29,12:10,0.598,0.888,0.567,1.086,0.775,0.361,0.627,0.587,-,-,��
2021/09/29,12:20,0.596,0.888,0.566,1.085,0.774,0.361,0.627,0.587,-,-,��
2021/09/29,12:30,0.597,0.888,0.567,1.086,0.776,0.361,0.628,0.585,-,-,��
2021/09/29,12:40,0.597,0.891,0.568,1.086,0.776,0.361,0.628,0.586,-,-,��
2021/09/29,12:50,0.596,0.890,0.567,1.087,0.775,0.363,0.629,0.586,-,-,��
2021/09/29,13:00,0.598,0.891,0.567,1.088,0.777,0.362,0.628,0.586,-,-,��
2021/09/29,13:10,0.595,0.889,0.568,1.088,0.776,0.360,0.628,0.586,-,-,��
2021/09/29,13:20,0.597,0.890,0.568,1.088,0.775,0.361,0.628,0.587,-,-,��
2021/09/29,13:30,0.596,0.890,0.568,1.087,0.779,0.361,0.629,0.587,-,-,��
2021/09/29,13:40,0.597,0.889,0.567,1.089,0.778,0.361,0.628,0.587,-,-,��
2021/09/29,13:50,0.597,0.892,0.569,1.087,0.778,0.362,0.629,0.587,-,-,��
2021/09/29,14:00,0.596,0.890,0.567,1.089,0.776,0.361,0.628,0.589,-,-,��
2021/09/29,14:10,0.597,0.892,0.567,1.089,0.777,0.361,0.629,0.587,-,-,��
2021/09/29,14:20,0.596,0.892,0.567,1.089,0.778,0.362,0.630,0.588,-,-,��
2021/09/29,14:30,0.597,0.890,0.569,1.088,0.779,0.362,0.629,0.587,-,-,��
2021/09/29,14:40,0.596,0.890,0.567,1.090,0.776,0.361,0.628,0.587,�쓌,5.0,��
2021/09/29,14:50,0.597,0.892,0.567,1.088,0.778,0.362,0.629,0.588,��쓌,5.8,��
2021/09/29,15:00,0.597,0.893,0.567,1.089,0.779,0.361,0.629,0.587,��쓌,6.7,��
2021/09/29,15:10,0.596,0.889,0.568,1.089,0.778,0.361,0.630,0.587,��쓌,6.4,��
2021/09/29,15:20,0.598,0.891,0.569,1.089,0.778,0.361,0.629,0.588,��쓌,6.1,��
2021/09/29,15:30,0.596,0.891,0.568,1.088,0.776,0.362,0.631,0.587,��쓌,5.8,��
2021/09/29,15:40,0.596,0.892,0.567,1.087,0.780,0.361,0.628,0.587,��쓌,5.8,��
2021/09/29,15:50,0.598,0.893,0.567,1.089,0.777,0.361,0.627,0.586,��쓌,6.3,��
2021/09/29,16:00,0.599,0.890,0.570,1.089,0.777,0.363,0.629,0.586,��쓌,6.7,��
2021/09/29,16:10,0.597,0.891,0.567,1.089,0.777,0.361,0.629,0.587,��쓌,6.0,��
2021/09/29,16:20,0.596,0.891,0.569,1.089,0.778,0.363,0.628,0.587,��쓌,7.1,��
2021/09/29,16:30,0.597,0.891,0.568,1.089,0.777,0.362,0.629,0.587,��쓌,5.2,��
2021/09/29,16:40,0.596,0.890,0.567,1.091,0.776,0.362,0.629,0.585,��,5.5,��
2021/09/29,16:50,0.593,0.891,0.569,1.088,0.778,0.363,0.629,0.585,��쓌,6.4,��
2021/09/29,17:00,0.597,0.893,0.568,1.090,0.778,0.364,0.629,0.585,��,5.6,��
2021/09/29,17:10,0.595,0.892,0.567,1.091,0.777,0.363,0.632,0.588,��,7.0,��
2021/09/29,17:20,0.595,0.892,0.567,1.089,0.777,0.363,0.629,0.588,��쓌,7.2,��
2021/09/29,17:30,0.596,0.891,0.568,1.091,0.776,0.363,0.630,0.589,��쓌,6.1,��
2021/09/29,17:40,0.596,0.893,0.567,1.089,0.778,0.364,0.630,0.590,��,6.5,��
2021/09/29,17:50,0.599,0.893,0.569,1.088,0.779,0.364,0.630,0.587,��,5.9,��
2021/09/29,18:00,0.594,0.895,0.569,1.091,0.778,0.364,0.631,0.589,��,5.3,��
2021/09/29,18:10,0.597,0.894,0.569,1.092,0.780,0.364,0.632,0.588,��,6.0,��
2021/09/29,18:20,0.596,0.894,0.570,1.091,0.780,0.364,0.630,0.588,��,5.3,��
2021/09/29,18:30,0.595,0.893,0.570,1.091,0.780,0.363,0.631,0.589,��,5.8,��
2021/09/29,18:40,0.597,0.894,0.569,1.090,0.778,0.365,0.632,0.590,��,5.8,��
2021/09/29,18:50,0.598,0.895,0.569,1.088,0.782,0.363,0.630,0.589,��,6.1,��
2021/09/29,19:00,0.597,0.893,0.570,1.093,0.781,0.364,0.631,0.588,��쐼,5.6,��
2021/09/29,19:10,0.596,0.894,0.569,1.089,0.780,0.364,0.632,0.588,��쐼,6.0,��
2021/09/29,19:20,0.598,0.895,0.569,1.092,0.780,0.364,0.631,0.590,��쐼,5.2,��
2021/09/29,19:30,0.599,0.896,0.570,1.092,0.780,0.364,0.630,0.589,��쐼,5.2,��
2021/09/29,19:40,0.597,0.896,0.571,1.091,0.781,0.363,0.632,0.589,��쐼,5.6,��
2021/09/29,19:50,0.596,0.893,0.567,1.091,0.780,0.364,0.630,0.589,��쐼,5.1,��
2021/09/29,20:00,0.600,0.896,0.568,1.088,0.780,0.364,0.630,0.589,��,4.8,��
2021/09/29,20:10,0.598,0.894,0.569,1.089,0.780,0.363,0.631,0.589,��쐼,4.2,��
2021/09/29,20:20,0.598,0.893,0.570,1.090,0.779,0.363,0.629,0.587,��쐼,3.9,��
2021/09/29,20:30,0.598,0.895,0.568,1.090,0.780,0.363,0.631,0.589,��쐼,4.1,��
2021/09/29,20:40,0.600,0.894,0.563,1.091,0.780,0.364,0.631,0.588,��쐼,5.1,��
2021/09/29,20:50,0.597,0.893,0.562,1.093,0.781,0.363,0.631,0.589,��,5.2,��
2021/09/29,21:00,0.598,0.895,0.566,1.090,0.778,0.363,0.630,0.590,��,4.5,��
2021/09/29,21:10,0.600,0.894,0.567,1.090,0.779,0.363,0.630,0.589,��,4.2,��
2021/09/29,21:20,0.599,0.893,0.568,1.090,0.779,0.363,0.632,0.589,��,4.8,��
2021/09/29,21:30,0.599,0.894,0.568,1.090,0.779,0.363,0.631,0.589,��,4.7,��
2021/09/29,21:40,0.599,0.894,0.567,1.089,0.780,0.363,0.630,0.588,��,3.3,��
2021/09/29,21:50,0.599,0.893,0.568,1.090,0.780,0.364,0.632,0.588,��쐼,3.4,��
2021/09/29,22:00,0.601,0.894,0.568,1.091,0.780,0.363,0.630,0.590,��쐼,4.2,��
2021/09/29,22:10,0.598,0.893,0.567,1.088,0.780,0.363,0.629,0.589,��쐼,4.9,��
2021/09/29,22:20,0.600,0.892,0.568,1.090,0.780,0.364,0.632,0.589,��,5.2,��
2021/09/29,22:30,0.599,0.894,0.566,1.090,0.779,0.363,0.630,0.588,��쐼,5.4,��
2021/09/29,22:40,0.597,0.892,0.569,1.090,0.778,0.364,0.629,0.588,��쐼,5.3,��
2021/09/29,22:50,0.598,0.892,0.566,1.089,0.779,0.363,0.629,0.588,��쐼,5.7,��
2021/09/29,23:00,0.601,0.893,0.564,1.089,0.780,0.363,0.631,0.588,��,5.7,��
2021/09/29,23:10,0.599,0.892,0.564,1.090,0.778,0.363,0.629,0.590,��,6.5,��
2021/09/29,23:20,0.599,0.894,0.567,1.088,0.779,0.362,0.630,0.587,��쐼,6.3,��
2021/09/29,23:30,0.599,0.892,0.569,1.088,0.778,0.365,0.631,0.590,��쐼,7.0,��
2021/09/29,23:40,0.599,0.892,0.570,1.090,0.780,0.363,0.630,0.588,��쐼,6.7,��
2021/09/29,23:50,0.599,0.891,0.569,1.089,0.779,0.363,0.630,0.590,��,7.6,��
